Location: Stonelick Lake State Park
(39.2170°N, 84.0850°W)
Time: 01:17:42
(UTC-04:00)

Daily predictions for brighter satellites

Satellite Brightness Start Highest point End
(mag) Time Altitude Azimuth Time Altitude Azimuth Time Altitude Azimuth
Lacrosse 5 4.0 00:10:39 10° NNW 00:13:24 22° N 00:13:24 22° N
CZ-2C R/B 4.3 00:14:15 10° NNE 00:16:47 29° N 00:16:47 29° N
CZ-4C R/B 3.9 00:26:51 26° NNE 00:26:51 26° NNE 00:29:32 10° NNE
ATLAS 5 CENTAUR R/B 3.6 00:27:18 10° NNW 00:31:11 36° N 00:31:11 36° N
ADEOS Rocket 4.3 01:10:00 10° NNE 01:14:09 37° NE 01:14:09 37° NE
Cosmos 1943 Rocket 4.2 01:11:41 10° NNW 01:13:38 22° NNW 01:13:38 22° NNW
Mayak 2.0 01:14:35 10° N 01:14:37 10° N 01:14:37 10° N
Resurs 1-4 Rocket 4.4 02:30:11 10° NE 02:32:03 16° ENE 02:32:03 16° ENE
Cosmos 2034 Rocket 4.5 03:17:52 56° N 03:17:52 56° N 03:22:42 10° N
Cosmos 1980 Rocket 4.1 03:22:30 10° N 03:27:10 26° ENE 03:31:50 10° ESE
Cosmos 1607 4.2 03:29:40 69° NE 03:29:40 69° NE 03:35:21 10° NNE
Cosmos 1697 Rocket 3.5 03:25:20 10° NNW 03:30:48 47° ENE 03:31:12 46° ENE
CZ-2D R/B 2.9 03:25:50 10° NNE 03:30:01 49° NE 03:30:01 49° NE
Cosmos 1092 Rocket 4.2 03:26:36 10° N 03:32:43 65° ENE 03:32:43 65° ENE
Cosmos 2082 Rocket 2.7 03:35:02 55° NE 03:35:02 55° NE 03:39:30 10° NNE
SL-16 R/B 2.6 03:34:38 75° NE 03:34:38 75° NE 03:40:34 10° NNW
Lacrosse 4 Rocket 3.5 03:31:03 10° N 03:33:35 27° NNE 03:33:35 27° NNE
Cosmos 1867 4.3 03:31:55 10° NNW 03:37:14 49° NE 03:37:36 48° ENE
ARIANE 5 R/B 3.3 03:39:03 10° NNE 03:43:38 49° E 03:43:38 49° E
Cosmos 967 Rocket 4.4 03:41:04 10° NNW 03:47:15 81° N 03:47:15 81° N
IRS-1C 4.5 03:43:12 10° NNE 03:47:36 61° NNE 03:47:36 61° NNE
APEX 4.5 03:50:36 84° SSE 03:50:44 85° ESE 03:56:57 10° NNE
Okean 1-7 Rocket 4.5 04:03:00 48° ENE 04:03:00 48° ENE 04:06:41 10° NNE
ADEOS II 3.9 03:58:13 10° NE 04:02:33 25° E 04:04:45 19° SE
IRS-1D 3.7 04:01:17 10° N 04:05:47 65° NNW 04:05:47 65° NNW
ADEOS 4.2 04:04:05 10° NNE 04:09:10 49° E 04:09:56 46° SE
Resurs 1-4 Rocket 2.5 04:08:43 10° N 04:13:08 49° NW 04:13:08 49° NW
Cosmos 1833 Rocket 3.1 04:14:17 48° NW 04:14:17 48° NW 04:19:27 10° NNE
Cosmos 1634 Rocket 3.9 04:18:32 64° W 04:18:52 66° W 04:25:06 10° N
Helios 1A Rocket 3.5 04:15:31 10° NNE 04:18:54 57° NNE 04:18:54 57° NNE
Lacrosse 5 rocket 2.5 04:21:36 38° NNW 04:21:36 38° NNW 04:24:46 10° NNE
Cosmos 1766 4.4 04:19:56 10° N 04:23:35 39° E 04:24:03 37° E
Cosmos 1606 Rocket 3.5 04:25:54 10° N 04:30:10 76° ENE 04:30:10 76° ENE
Cosmos 2360 4.2 04:25:14 10° NNW 04:30:57 83° ENE 04:36:39 10° SSE
Cosmos 2279 Rocket 3.9 04:32:47 49° SSW 04:34:38 83° W 04:40:56 10° N
Cosmos 2228 3.7 04:31:33 10° N 04:35:44 51° E 04:37:29 31° SE
Cosmos 1892 Rocket 3.5 04:40:00 72° SSE 04:40:25 84° E 04:44:51 10° N
Cosmos 1066 Rocket 4.3 04:44:18 49° W 04:44:51 51° WNW 04:50:09 10° N
Cosmos 2026 Rocket 4.1 04:39:42 10° NNW 04:45:53 53° W 04:47:24 44° SW
Meteor 1-21 4.4 04:47:14 27° S 04:50:22 72° E 04:55:59 10° NNE
ATLAS 3B R/B 3.2 04:47:02 25° S 04:51:17 56° ESE 04:58:04 10° NE
COSMOS 2487 4.0 04:52:33 25° NNW 04:52:33 25° NNW 04:54:37 10° N
Cosmos 2208 Rocket 4.3 04:51:46 44° W 04:52:33 47° WNW 04:57:38 10° N
Cosmos 1763 Rocket 3.5 04:53:31 39° SSW 04:55:31 85° ESE 05:00:51 10° NNE
Timation 2 Rocket 4.0 04:52:46 31° S 04:55:49 73° ESE 05:01:47 10° NNE
Cosmos 1898 Rocket 3.4 04:59:03 10° NNW 05:04:12 63° WSW 05:09:17 10° S
UNKNOWN OBJECT B 3.7 05:06:59 10° N 05:10:18 31° WNW 05:10:18 31° WNW
USA 215 3.2 05:03:55 10° NE 05:10:29 85° NW 05:14:17 28° SW
CZ-2D R/B 3.8 05:07:16 10° NNW 05:10:40 17° WNW 05:11:21 17° WNW
Cosmos 1980 Rocket 2.4 05:06:01 10° NW 05:11:19 43° WSW 05:15:16 17° S
Cosmos 1655 Rocket 4.2 05:05:56 10° NNW 05:12:02 50° W 05:16:05 21° SSW
Okean O Rocket 3.9 05:10:07 10° NE 05:13:32 22° E 05:16:56 10° SSE
Cosmos 1697 Rocket 4.1 05:10:05 10° NW 05:12:50 20° WNW 05:12:50 20° WNW
Cosmos 1937 Rocket 3.4 05:12:31 10° NNW 05:17:41 67° WSW 05:22:46 10° S
SL-16 R/B 4.2 05:19:43 14° WNW 05:19:43 14° WNW 05:21:59 10° NW
Cosmos 2082 Rocket 3.9 05:16:53 15° WNW 05:18:34 17° NW 05:22:14 10° N
Cosmos 1470 4.2 05:15:52 10° N 05:19:38 39° ENE 05:23:22 10° SSE
Cosmos 2266 Rocket 3.9 05:14:39 10° N 05:20:45 85° W 05:26:53 10° S
SL-16 R/B 2.4 05:16:02 10° NNW 05:21:44 73° ENE 05:27:23 10° SSE
ARIANE 5 R/B 4.0 05:19:08 10° NNW 05:22:51 20° WNW 05:23:59 19° W
DNEPR-1 R/B 3.8 05:29:30 18° SSW 05:32:25 64° ESE 05:36:51 10° NE
Cosmos 990 Rocket 4.2 05:31:14 10° NNW 05:36:08 44° WSW 05:41:00 10° S
Cosmos 1814 Rocket 4.5 05:34:05 23° WSW 05:36:48 41° WNW 05:41:41 10° N
Cosmos 2150 Rocket 4.1 05:32:03 10° NNW 05:37:27 63° WSW 05:42:48 10° S
Cosmos 1842 4.2 05:36:28 25° WSW 05:37:35 29° WNW 05:41:04 10° NNW
Cosmos 2322 Rocket 2.1 05:33:01 10° NNW 05:38:42 85° WSW 05:44:18 10° SSE
Cosmos 292 Rocket 3.8 05:36:09 17° SSW 05:39:47 69° WNW 05:44:36 10° NNE
Cosmos 1707 3.2 05:37:13 10° S 05:41:01 62° E 05:44:53 10° NNE
ADEOS II 2.7 05:37:30 10° N 05:42:18 37° WNW 05:45:42 18° SW
OAO 3 Rocket 4.3 05:41:40 20° SW 05:43:07 24° SSW 05:46:53 10° SSE
Cosmos 2298 Rocket 4.2 05:38:43 10° NNW 05:43:48 47° WSW 05:48:51 10° S
Cosmos 1953 2.2 05:39:50 10° N 05:43:55 81° W 05:47:59 10° S
USA 267 4.4 05:37:59 10° ESE 05:44:05 44° NNE 05:50:12 10° NW
PSLV R/B 3.7 05:44:43 10° N 05:48:36 85° WNW 05:52:22 10° SSW
USA 238 DEB 3.9 05:43:52 17° SW 05:49:13 58° NW 05:56:06 10° NNE
USA 238 3.9 05:43:57 17° SW 05:49:19 58° NW 05:56:12 10° NNE
PSLV R/B 3.6 05:45:30 10° N 05:49:38 55° WNW 05:53:38 11° SSW
Meteor 1-31 Rocket 3.7 05:48:15 10° NNE 05:52:01 49° E 05:55:45 10° S
Cosmos 1812 Rocket 3.5 05:51:31 10° N 05:56:00 74° W 06:00:25 10° S
Cosmos 2058 Rocket 4.4 05:53:11 10° NW 05:56:24 20° W 05:58:41 14° SW
Cosmos 1378 3.2 05:53:18 10° SSW 05:56:57 55° W 06:00:39 10° N
Cosmos 1602 Rocket 4.0 05:55:42 10° SSW 05:59:44 41° WNW 06:03:51 10° N
Lacrosse 5 rocket 3.9 06:00:15 10° NNW 06:00:55 10° NNW 06:01:36 10° NNW
CZ-4B R/B 3.7 05:55:49 10° NNE 06:01:22 65° ESE 06:06:47 10° S
Cosmos 44 3.7 05:59:02 10° NW 06:04:07 50° WSW 06:09:18 10° S
CRYOSAT 2 4.3 06:00:47 10° S 06:05:37 84° W 06:10:30 10° N
Cosmos 1758 Rocket 4.1 06:01:27 10° S 06:05:41 60° E 06:09:58 10° NNE
Cosmos 1758 4.2 06:04:53 10° NNW 06:08:18 28° W 06:11:41 10° SSW
Cosmos 841 Rocket 4.5 06:05:16 12° WSW 06:09:22 29° WNW 06:13:54 10° N
BREEZE-M R/B 4.5 06:09:10 10° W 06:12:44 39° NNW 06:19:36 10° NE
Cosmos 2322 4.3 06:11:52 10° NNW 06:17:33 64° ENE 06:23:13 10° SSE
CZ-4B DEB 4.2 06:13:31 10° N 06:19:05 75° WNW 06:24:35 10° SSW
Meteor 1-28 Rocket 3.1 06:16:09 10° S 06:19:51 65° W 06:23:35 10° NNW
Meteor 2-5 Rocket 3.8 06:16:17 10° S 06:21:48 88° E 06:27:24 10° N
PSLV R/B 3.9 06:20:12 10° SW 06:23:01 39° SSE 06:25:52 10° E
Cosmos 44 Rocket 3.7 06:19:27 10° NW 06:24:23 47° WSW 06:29:21 10° S
SJ 16-02 1.5 06:20:20 10° NNW 06:24:36 51° WSW 06:28:52 10° S
NOSS 3-2 (C) 3.5 06:20:26 10° SW 06:26:17 70° NW 06:32:48 10° NNE
